Location: G�ndlingen
(48.0142°N, 7.6396°E)
Time: 18:32:36
(UTC+00:00)

Cosmos 2322 - Pass Details

Date: 05 July 2020
Orbit: 841 x 854 km, 71.0° (Epoch: 11 August)

Event Time Altitude Azimuth Distance (km) Brightness Sun altitude
Rises 20:17:33 0° 184° (S) 3,408 6.5 -6.7°
Reaches altitude 10° 20:20:06 10° 177° (S) 2,477 5.7 -7.0°
Maximum altitude 20:25:26 43° 108° (ESE) 1,193 4.1 -7.6°
Drops below altitude 10° 20:30:47 10° 39° (NE) 2,493 6.3 -8.2°
Sets 20:33:21 0° 33° (NNE) 3,432 7.1 -8.5°
